Weather History for KEBG - January, 2014

Change the Weather History Date:

Saturday, January 11, 2014

  Actual Average (KMFE) Record (KMFE)
Temperature  
Mean Temperature 68 °F 60 °F  
Max Temperature 86 °F 70 °F 93 °F (1963)
Min Temperature 51 °F 50 °F 22 °F (1899)
Degree Days  
Heating Degree Days 0 7  
Month to date heating degree days 77  
Since 1 July heating degree days 314  
Cooling Degree Days 4 2  
Month to date cooling degree days 22  
Year to date cooling degree days 22  
Growing Degree Days 18 (Base 50)    
Moisture  
Dew Point 48 °F    
Average Humidity 63    
Maximum Humidity 94    
Minimum Humidity 12    
Precipitation  
Precipitation 0.00 in 0.04 in 0.47 in (2003)
Month to date precipitation 0.36  
Year to date precipitation 0.36  
Sea Level Pressure  
Sea Level Pressure 30.05 in    
Wind  
Wind Speed 4 mph (NE)    
Max Wind Speed 18 mph    
Max Gust Speed 24 mph    
Visibility 6 miles    
Events Fog    
T = Trace of Precipitation, MM = Missing Value Source: NWS Daily Summary

Daily Weather History Graph

Daily Weather History Graph

Search for Another Location

Airport or City:

Trip Planner

Search our weather history database for the weather conditions in past years. The results will help you decide how hot, cold, wet, or windy it might be!

Date:

Astronomy

Jan. 11, 2014 Rise Set
Actual Time 7:22 AM CST 5:59 PM CST
Civil Twilight 6:57 AM CST 6:24 PM CST
Nautical Twilight 6:28 AM CST 6:52 PM CST
Astronomical Twilight 6:00 AM CST 7:20 PM CST
Moon 2:40 PM CST (1/11) 3:33 AM CST (1/11)
Length of Visible Light 11h 26m
Length of Day
10h 36m
Waxing Gibbous, 83% of the Moon is Illuminated
Jan 11
Waxing Gibbous
Jan 15
Full
Jan 23
Last Quarter
Jan 30
New
Feb 6
First Quarter

Hourly Weather History & Observations

Time (CST) Temp. Dew Point Humidity Pressure Visibility Wind Dir Wind Speed Gust Speed Precip Events Conditions
12:15 AM 65.1 °F 62.1 °F 90% 29.91 in 4.0 mi SSW 3.5 mph - N/A   Clear
12:35 AM 63.9 °F 60.8 °F 90% 29.91 in 0.8 mi Calm Calm - N/A   Mist
12:55 AM 62.6 °F 59.9 °F 91% 29.91 in 0.5 mi SSW 4.6 mph - N/A Fog Fog
1:15 AM 61.5 °F 59.0 °F 91% 29.92 in 0.2 mi Calm Calm - N/A Fog Fog
1:35 AM 60.8 °F 58.3 °F 91% 29.92 in 0.2 mi Calm Calm - N/A Fog Fog
1:55 AM 60.3 °F 58.1 °F 93% 29.93 in 0.2 mi Calm Calm - N/A Fog Fog
2:15 AM 60.3 °F 57.9 °F 92% 29.93 in 0.2 mi Calm Calm - N/A Fog Fog
2:35 AM 60.3 °F 58.1 °F 93% 29.94 in 0.2 mi NNW 3.5 mph - N/A Fog Fog
2:55 AM 61.0 °F 58.6 °F 92% 29.94 in 0.2 mi Calm Calm - N/A Fog Fog
3:15 AM 60.8 °F 58.3 °F 91% 29.94 in 0.2 mi Calm Calm - N/A Fog Fog
3:35 AM 60.3 °F 57.9 °F 92% 29.94 in 0.2 mi Calm Calm - N/A Fog Fog
3:55 AM 59.0 °F 56.7 °F 92% 29.94 in 0.2 mi Calm Calm - N/A Fog Fog
4:15 AM 58.3 °F 56.3 °F 93% 29.95 in 0.2 mi Calm Calm - N/A Fog Fog
4:35 AM 58.1 °F 55.9 °F 93% 29.95 in 0.2 mi Calm Calm - N/A Fog Fog
4:55 AM 57.0 °F 54.7 °F 92% 29.95 in 0.2 mi Calm Calm - N/A Fog Fog
5:15 AM 56.1 °F 54.0 °F 92% 29.96 in 0.2 mi NNW 3.5 mph - N/A Fog Fog
5:35 AM 54.7 °F 52.7 °F 93% 29.97 in 0.2 mi Calm Calm - N/A Fog Fog
5:55 AM 54.5 °F 52.5 °F 93% 29.98 in 1.8 mi Calm Calm - N/A   Mist
6:15 AM 53.1 °F 51.1 °F 93% 29.99 in 0.2 mi Calm Calm - N/A Fog Fog
6:35 AM 52.7 °F 50.7 °F 93% 29.99 in 0.2 mi Calm Calm - N/A Fog Fog
6:55 AM 52.9 °F 50.9 °F 93% 30.01 in 0.2 mi Calm Calm - N/A Fog Fog
7:15 AM 51.3 °F 49.3 °F 93% 30.02 in 0.2 mi SE 4.6 mph - N/A Fog Fog
7:35 AM 53.1 °F 51.3 °F 94% 30.03 in 0.5 mi SE 3.5 mph - N/A Fog Fog
7:55 AM 54.0 °F 52.0 °F 93% 30.04 in 3.0 mi Calm Calm - N/A   Clear
8:15 AM 55.0 °F 53.1 °F 93% 30.06 in 4.0 mi Calm Calm - N/A   Clear
8:35 AM 56.3 °F 54.5 °F 94% 30.07 in 5.0 mi Calm Calm - N/A   Clear
8:55 AM 59.2 °F 57.2 °F 93% 30.08 in 5.0 mi Calm Calm - N/A   Clear
9:15 AM 60.6 °F 58.5 °F 93% 30.09 in 5.0 mi SE 3.5 mph - N/A   Clear
9:35 AM 62.4 °F 60.3 °F 93% 30.10 in 7.0 mi Calm Calm - N/A   Clear
9:55 AM 64.0 °F 61.9 °F 93% 30.11 in 7.0 mi Calm Calm - N/A   Clear
10:15 AM 67.8 °F 62.4 °F 83% 30.11 in 10.0 mi West 3.5 mph - N/A   Clear
10:35 AM 71.6 °F 60.1 °F 67% 30.12 in 10.0 mi NW 5.8 mph - N/A   Clear
10:55 AM 76.1 °F 57.0 °F 51% 30.11 in 10.0 mi NW 10.4 mph - N/A   Clear
11:15 AM 79.5 °F 52.9 °F 40% 30.10 in 10.0 mi NNW 13.8 mph - N/A   Clear
11:35 AM 83.8 °F 42.8 °F 24% 30.09 in 10.0 mi North 13.8 mph 18.4 mph N/A   Clear
11:55 AM 86.4 °F 30.6 °F 13% 30.07 in 10.0 mi North 18.4 mph 24.2 mph N/A   Clear
12:15 PM 86.0 °F 28.2 °F 12% 30.07 in 10.0 mi North 17.3 mph 21.9 mph N/A   Clear
12:35 PM 85.8 °F 31.3 °F 14% 30.07 in 10.0 mi North 12.7 mph - N/A   Clear
12:55 PM 85.3 °F 32.7 °F 15% 30.06 in 10.0 mi NNE 16.1 mph - N/A   Clear
1:15 PM 85.5 °F 32.7 °F 15% 30.05 in 10.0 mi North 15.0 mph - N/A   Clear
1:35 PM 84.2 °F 36.7 °F 18% 30.05 in 10.0 mi North 11.5 mph - N/A   Clear
1:55 PM 85.1 °F 30.9 °F 14% 30.05 in 10.0 mi North 15.0 mph 19.6 mph N/A   Clear
2:15 PM 85.1 °F 29.7 °F 13% 30.05 in 10.0 mi North 13.8 mph 18.4 mph N/A   Clear
2:35 PM 84.9 °F 28.9 °F 13% 30.04 in 10.0 mi NNE 8.1 mph - N/A   Clear
2:55 PM 84.9 °F 27.0 °F 12% 30.04 in 10.0 mi NNE 9.2 mph - N/A   Clear
3:15 PM 84.9 °F 28.8 °F 13% 30.04 in 10.0 mi NNE 11.5 mph - N/A   Clear
3:35 PM 84.0 °F 28.4 °F 13% 30.04 in 10.0 mi NNE 8.1 mph - N/A   Clear
3:55 PM 83.1 °F 31.3 °F 15% 30.04 in 10.0 mi NNE 6.9 mph - N/A   Clear
4:15 PM 83.7 °F 30.0 °F 14% 30.05 in 10.0 mi NE 8.1 mph - N/A   Clear
4:35 PM 83.3 °F 31.3 °F 15% 30.05 in 10.0 mi ENE 9.2 mph - N/A   Clear
4:55 PM 81.1 °F 31.5 °F 17% 30.06 in 10.0 mi ENE 9.2 mph - N/A   Clear
5:15 PM 79.9 °F 35.2 °F 20% 30.06 in 10.0 mi ENE 6.9 mph - N/A   Clear
5:35 PM 76.5 °F 54.0 °F 46% 30.07 in 10.0 mi East 13.8 mph - N/A   Clear
5:55 PM 72.3 °F 49.6 °F 45% 30.07 in 10.0 mi East 12.7 mph - N/A   Clear
6:15 PM 69.8 °F 43.9 °F 39% 30.08 in 10.0 mi East 11.5 mph - N/A   Clear
6:35 PM 67.3 °F 43.5 °F 42% 30.09 in 10.0 mi East 8.1 mph - N/A   Clear
6:55 PM 65.3 °F 43.0 °F 44% 30.10 in 10.0 mi East 9.2 mph - N/A   Clear
7:15 PM 63.1 °F 42.3 °F 46% 30.11 in 10.0 mi East 4.6 mph - N/A   Clear
7:35 PM 62.2 °F 41.7 °F 47% 30.11 in 10.0 mi ENE 4.6 mph - N/A   Clear
7:55 PM 60.8 °F 42.1 °F 50% 30.11 in 10.0 mi ENE 5.8 mph - N/A   Clear
8:15 PM 60.3 °F 44.2 °F 55% 30.12 in 10.0 mi ENE 4.6 mph - N/A   Clear
8:35 PM 59.9 °F 47.3 °F 63% 30.12 in 10.0 mi East 4.6 mph - N/A   Clear
8:55 PM 60.1 °F 48.6 °F 66% 30.13 in 10.0 mi East 4.6 mph - N/A   Clear
9:15 PM 59.0 °F 48.4 °F 68% 30.15 in 10.0 mi East 3.5 mph - N/A   Clear
9:35 PM 59.9 °F 49.3 °F 68% 30.15 in 10.0 mi Calm Calm - N/A   Clear
9:55 PM 59.9 °F 49.6 °F 69% 30.15 in 10.0 mi Calm Calm - N/A   Clear
10:15 PM 54.9 °F 47.5 °F 76% 30.15 in 10.0 mi Calm Calm - N/A   Clear
10:35 PM 54.7 °F 48.2 °F 79% 30.15 in 10.0 mi Calm Calm - N/A   Clear
10:55 PM 56.3 °F 48.7 °F 76% 30.15 in 10.0 mi Calm Calm - N/A   Clear
11:15 PM 54.9 °F 49.6 °F 83% 30.14 in 10.0 mi Calm Calm - N/A   Clear
11:35 PM 55.8 °F 50.0 °F 81% 30.14 in 10.0 mi Calm Calm - N/A   Clear
11:55 PM 55.0 °F 50.0 °F 83% 30.14 in 10.0 mi Calm Calm - N/A   Clear